Regional Weather Roundup
Issued by NWS

Home | Current Version | Previous Version | Text Only | Print | Product List | Glossary Off
Versions: 1 2 3 4 5 6 7 8 9 10 11 12 13 14 15 16 17 18 19 20 21 22 23 24 25 26 27 28 29 30 31 32 33 34 35 36 37 38 39 40 41 42 43 44 45 46 47 48 49 50

000
ASUS44 KMEG 252010
RWRTN
TENNESSEE HOURLY STATE WEATHER ROUNDUP
NATIONAL WEATHER SERVICE MEMPHIS TN
300 PM CDT SUN JUN 25 2017

TNZ002-004-019-021-049-052-054-088>092-252100-
WEST TENNESSEE

CITY           SKY/WX    TMP DP  RH WIND       PRES   REMARKS
MEMPHIS INTL   MOSUNNY   86  56  35 N10       30.21F
NWS MEMPHIS      N/A     84 N/A N/A MISG        N/A
JACKSON        SUNNY     84  52  33 N7        30.21F
SOMERVILLE     SUNNY     82  50  32 VRB7G14   30.21F
COVINGTON      SUNNY     82  50  32 VRB6G12   30.21F
UNION CITY     SUNNY     82  48  30 W6        30.19F
BOLIVAR        SUNNY     82  50  32 VRB7      30.21F
PARIS          SUNNY     81  52  36 VRB5      30.20F
HUNTINGDON     SUNNY     82  50  32 N7G14     30.20F
LEXINGTON      SUNNY     81  52  36 N9        30.21F
SELMER         SUNNY     81  52  36 NE9       30.21F
SAVANNAH       SUNNY     82  50  32 NE10      30.20F
$$

TNZ008-025-027-028-033-062-065-066-252100-
NORTH MIDDLE TENNESSEE

CITY           SKY/WX    TMP DP  RH WIND       PRES   REMARKS
NASHVILLE      MOSUNNY   83  47  28 N15G25    30.20F
PORTLAND       SUNNY     81  46  30 N12       30.20F
CLARKSVILLE    SUNNY     81  48  31 W13       30.20F
SMYRNA         SUNNY     81  48  31 N9G18     30.21F
COOKEVILLE     SUNNY     79  50  36 NW8       30.20F
GALLATIN       SUNNY     82  48  30 VRB5      30.22F
CROSSVILLE     SUNNY     75  48  38 N10       30.23F
$$

TNZ061-075-076-078-094-096-097-252100-
SOUTH MIDDLE TENNESSEE

CITY           SKY/WX    TMP DP  RH WIND       PRES   REMARKS
FAYETTEVILLE   SUNNY     79  52  38 N9G20     30.20F
TULLAHOMA      SUNNY     79  46  31 N14       30.21F
WINCHESTER     SUNNY     79  54  41 N13         N/A
MCMINNVILLE    SUNNY     79  54  41 N6        30.20F
COLUMBIA       SUNNY     81  46  30 N8        30.19F
SHELBYVILLE    SUNNY     79  50  36 N12G18    30.20F
$$

TNZ017-018-042-046-047-252100-
NORTHEAST TENNESSEE

CITY           SKY/WX    TMP DP  RH WIND       PRES   REMARKS
TRI CITIES     PTSUNNY   77  54  44 SW9G16    30.16F
ELIZABETHTON   PTSUNNY   75  55  50 VRB3G12   30.16F
$$

TNZ012-013-036-069-073-074-252100-
CENTRAL EAST TENNESSEE

CITY           SKY/WX    TMP DP  RH WIND       PRES   REMARKS
KNOXVILLE      MOSUNNY   78  53  41 NE6       30.16F
OAK RIDGE      SUNNY     81  48  31 N8        30.18F
DOWNTOWN KNOXV SUNNY     79  54  41 CALM      30.16F
GATLINBURG     MOSUNNY   77  55  47 S3        30.16F
MORRISTOWN     SUNNY     75  52  43 VRB5      30.17F
JACKSBORO      SUNNY     79  48  34 NE8G15    30.21F
$$

TNZ083-085-099-252100-
SOUTHEAST TENNESSEE

CITY           SKY/WX    TMP DP  RH WIND       PRES   REMARKS
CHATTANOOGA    CLOUDY    79  56  45 N8        30.17F
$$

SKY/WX REPORTED AS FAIR MEANS FEW OR NO CLOUDS BELOW
12 THOUSAND FEET.





USA.gov is the U.S. government's official web portal to all federal, state and local government web resources and services.